This is the latest recevied weather packets stored in our database for station/object KE5SXT-2. If no packets are shown the sender has not sent any weather packets the latest 10 day(s).
| Time | Temp. | Humidity | Pressure | Rain* | Wind** | Luminosity | Snow |
|---|---|---|---|---|---|---|---|
| 1778146845 | 15.56° C | 70% | 1017.2 hPa | 0 mm | - | - | - |
| 1778145020 | 16.11° C | 72% | 1016.8 hPa | 0 mm | - | - | - |
| 1778139020 | 17.78° C | 65% | 1015.6 hPa | 0 mm | - | - | - |
| 1778134220 | 19.44° C | 59% | 1015.4 hPa | 0 mm | - | - | - |
| 1778129421 | 20.56° C | 43% | 1014.6 hPa | 0 mm | - | - | - |
| 1778128245 | 21.67° C | 40% | 1014.3 hPa | 0 mm | - | - | - |
| 1778127021 | 22.22° C | 37% | 1014.3 hPa | 0 mm | - | - | - |
| 1778115645 | 27.78° C | 24% | 1011.9 hPa | 0 mm | - | - | - |
| 1778111470 | 27.78° C | 24% | 1012 hPa | 0 mm | - | - | - |
| 1778108423 | 27.78° C | 25% | 1011.9 hPa | 0 mm | - | - | - |
| 1778107821 | 27.78° C | 25% | 1011.8 hPa | 0 mm | - | - | - |
| 1778106022 | 27.78° C | 26% | 1012.3 hPa | 0 mm | - | - | - |
| 1778101822 | 26.67° C | 29% | 1012.3 hPa | 0 mm | - | - | - |
| 1778100672 | 26.11° C | 29% | 1012.5 hPa | 0 mm | - | - | - |
| 1778098822 | 25° C | 31% | 1013 hPa | 0 mm | - | - | - |
| 1778093422 | 22.78° C | 38% | 1013.7 hPa | 0 mm | - | - | - |
| 1778087422 | 20° C | 47% | 1014.1 hPa | 0 mm | - | - | - |
| 1778086822 | 19.44° C | 47% | 1014.2 hPa | 0 mm | - | - | - |
| 1778085021 | 18.89° C | 50% | 1014 hPa | 0 mm | - | - | - |
| 1778078446 | 22.22° C | 33% | 1013.7 hPa | 0 mm | - | - | - |
| 1778076021 | 21.11° C | 33% | 1013 hPa | 0 mm | - | - | - |
| 1778074221 | 20.56° C | 35% | 1012.3 hPa | 0 mm | - | - | - |
| 1778073621 | 20.56° C | 33% | 1012.4 hPa | 0 mm | - | - | - |
| 1778072421 | 20° C | 33% | 1012 hPa | 0 mm | - | - | - |
| 1778071246 | 21.11° C | 31% | 1011.8 hPa | 0 mm | - | - | - |
* Rain latest hour (hover to see other rain measurements)
** Current wind speed in m/s (hover to see current wind gust speed)